This is the latest recevied weather packets stored in our database for station/object IT9DBI-3. If no packets are shown the sender has not sent any weather packets the latest 10 day(s).
| Time | Temp. | Humidity | Pressure | Rain* | Wind** | Luminosity | Snow |
|---|---|---|---|---|---|---|---|
| 1778057360 | 22.22° C | 52% | 1013.6 hPa | - | - | - | - |
| 1778056159 | 23.33° C | 39% | 1013.5 hPa | - | - | - | - |
| 1778054958 | 22.78° C | 39% | 1013.7 hPa | - | - | - | - |
| 1778053756 | 22.22° C | 40% | 1013.8 hPa | - | - | - | - |
| 1778052555 | 22.22° C | 43% | 1013.8 hPa | - | - | - | - |
| 1778051354 | 21.67° C | 46% | 1013.9 hPa | - | - | - | - |
| 1778050153 | 21.67° C | 49% | 1014 hPa | - | - | - | - |
| 1778048951 | 20.56° C | 60% | 1014.1 hPa | - | - | - | - |
| 1778047750 | 19.44° C | 76% | 1014.1 hPa | - | - | - | - |
| 1778046548 | 18.89° C | 66% | 1013.8 hPa | - | - | - | - |
| 1778045347 | 17.22° C | 78% | 1013.4 hPa | - | - | - | - |
| 1778044146 | 17.22° C | 79% | 1013 hPa | - | - | - | - |
| 1778042945 | 16.67° C | 81% | 1012.9 hPa | - | - | - | - |
| 1778041741 | 17.22° C | 73% | 1012.8 hPa | - | - | - | - |
| 1778040540 | 17.78° C | 62% | 1012.6 hPa | - | - | - | - |
| 1778039338 | 17.78° C | 62% | 1012.4 hPa | - | - | - | - |
| 1778038137 | 17.78° C | 68% | 1012.5 hPa | - | - | - | - |
| 1778036936 | 18.33° C | 60% | 1012.4 hPa | - | - | - | - |
| 1778035734 | 18.33° C | 47% | 1012.3 hPa | - | - | - | - |
| 1778034533 | 18.89° C | 39% | 1012.2 hPa | - | - | - | - |
| 1778033331 | 18.89° C | 36% | 1012.2 hPa | - | - | - | - |
| 1778032130 | 17.78° C | 40% | 1012.4 hPa | - | - | - | - |
| 1778030929 | 20° C | 26% | 1012.4 hPa | - | - | - | - |
| 1778029728 | 19.44° C | 27% | 1012.6 hPa | - | - | - | - |
| 1778027317 | 21.11° C | 20% | 1012.6 hPa | - | - | - | - |
* Rain since midnight (hover to see other rain measurements)
** Current wind speed in m/s (hover to see current wind gust speed)